User: anonymous   Login
Location: Unspecified
(0.0000°N, 0.0000°E)
Time: 01:54:02
(UTC+00:00)
Language:

STARLINK-34141 - Orbit

View from above orbital plane
View from above orbital plane
View from above satellite
View from above satellite

Ground track
Ground track

The orbit is defined by the following mean orbital elements,

1 64020U          26145.64533059 +.00000000 +00000-0 +85764-3 0 00001
2 64020  42.9970 283.4239 0001672 198.9993 161.0796 15.27604086    09
Epoch (UTC): 25 May 2026 15:29:16
Eccentricity: 0.0001672
inclination: 42.9970°
perigee height: 482 km
apogee height: 484 km
right ascension of ascending node: 283.4239°
argument of perigee: 198.9993°
revolutions per day: 15.27604086
mean anomaly at epoch: 161.0796°

The dashed part of the orbit path shows where the satellite is in the earth's shadow,  

DLR